| time (UTC) | temp F | wind direction | speed MPH | gust MPH | rain 1hr in | rain 24hr in | rain mn in | humidity % | barometer mb |
| 20260510001204 | 50 | 313 | 1.0 | 3.0 | 0.00 | 0.00 | 0.00 | 85 | 1015.1 |
| 20260509235704 | 50 | 321 | 0.0 | 2.0 | 0.00 | 0.00 | 0.00 | 85 | 1015.2 |
| 20260509235204 | 50 | 322 | 1.0 | 3.0 | 0.00 | 0.00 | 0.00 | 85 | 1015.2 |
| 20260509234204 | 50 | 312 | 1.0 | 2.0 | 0.00 | 0.00 | 0.00 | 85 | 1015.4 |
| 20260509233704 | 50 | 322 | 1.0 | 2.0 | 0.00 | 0.00 | 0.00 | 85 | 1015.4 |
| 20260509233204 | 51 | 297 | 1.0 | 3.0 | 0.00 | 0.00 | 0.00 | 85 | 1015.4 |
| 20260509232704 | 51 | 307 | 1.0 | 3.0 | 0.00 | 0.00 | 0.00 | 85 | 1015.5 |
| 20260509232204 | 51 | 317 | 1.0 | 2.0 | 0.00 | 0.00 | 0.00 | 85 | 1015.5 |
| 20260509231704 | 51 | 287 | 1.0 | 3.0 | 0.00 | 0.00 | 0.00 | 85 | 1015.6 |
| 20260509231204 | 51 | 315 | 0.0 | 2.0 | 0.00 | 0.00 | 0.00 | 84 | 1015.6 |
| 20260509230704 | 51 | 312 | 1.0 | 3.0 | 0.00 | 0.00 | 0.00 | 84 | 1015.7 |
| 20260509230204 | 51 | 298 | 1.0 | 3.0 | 0.00 | 0.00 | 0.00 | 84 | 1015.7 |
| 20260509225704 | 51 | 300 | 1.0 | 2.0 | 0.00 | 0.00 | 0.00 | 84 | 1015.7 |
| 20260509225204 | 51 | 333 | 0.0 | 2.0 | 0.00 | 0.00 | 0.00 | 84 | 1015.7 |
| 20260509224704 | 51 | 325 | 0.0 | 2.0 | 0.00 | 0.00 | 0.00 | 84 | 1015.7 |
| 20260509223704 | 52 | 329 | 1.0 | 2.0 | 0.00 | 0.00 | 0.00 | 83 | 1015.8 |
| 20260509223204 | 52 | 313 | 1.0 | 3.0 | 0.00 | 0.00 | 0.00 | 83 | 1015.7 |
| 20260509222704 | 52 | 316 | 1.0 | 3.0 | 0.00 | 0.00 | 0.00 | 83 | 1015.7 |
| 20260509222204 | 52 | 312 | 1.0 | 3.0 | 0.00 | 0.00 | 0.00 | 83 | 1015.8 |
| 20260509221704 | 52 | 332 | 1.0 | 2.0 | 0.00 | 0.00 | 0.00 | 82 | 1015.8 |
| 20260509221205 | 52 | 317 | 1.0 | 2.0 | 0.00 | 0.00 | 0.00 | 82 | 1015.8 |
| 20260509220704 | 52 | 327 | 0.0 | 2.0 | 0.00 | 0.00 | 0.00 | 82 | 1015.8 |
| 20260509220205 | 52 | 331 | 0.0 | 2.0 | 0.00 | 0.00 | 0.00 | 81 | 1015.8 |
| 20260509215703 | 52 | 321 | 1.0 | 2.0 | 0.00 | 0.00 | 0.00 | 81 | 1015.9 |
| 20260509215203 | 52 | 359 | 1.0 | 3.0 | 0.00 | 0.00 | 0.00 | 81 | 1015.9 |
| 20260509214704 | 52 | 317 | 0.0 | 2.0 | 0.00 | 0.00 | 0.00 | 81 | 1015.9 |
| 20260509214203 | 53 | 13 | 1.0 | 3.0 | 0.00 | 0.00 | 0.00 | 80 | 1016.0 |
| 20260509213703 | 53 | 340 | 2.0 | 3.0 | 0.00 | 0.00 | 0.00 | 80 | 1016.0 |
| 20260509213203 | 53 | 321 | 1.0 | 3.0 | 0.00 | 0.00 | 0.00 | 80 | 1016.1 |
| 20260509212703 | 53 | 330 | 1.0 | 2.0 | 0.00 | 0.00 | 0.00 | 80 | 1016.1 |
| 20260509211703 | 53 | 305 | 0.0 | 2.0 | 0.00 | 0.00 | 0.00 | 79 | 1016.2 |
| 20260509211204 | 53 | 303 | 1.0 | 3.0 | 0.00 | 0.00 | 0.00 | 79 | 1016.2 |
| 20260509210204 | 54 | 322 | 0.0 | 3.0 | 0.00 | 0.00 | 0.00 | 78 | 1016.1 |
| 20260509205204 | 54 | 321 | 1.0 | 3.0 | 0.00 | 0.00 | 0.00 | 78 | 1016.2 |
| 20260509204704 | 54 | 335 | 1.0 | 3.0 | 0.00 | 0.00 | 0.00 | 77 | 1016.3 |
| 20260509204203 | 55 | 334 | 1.0 | 3.0 | 0.00 | 0.00 | 0.00 | 77 | 1016.3 |
| 20260509203703 | 55 | 328 | 2.0 | 5.0 | 0.00 | 0.00 | 0.00 | 77 | 1016.3 |
| 20260509203203 | 55 | 313 | 1.0 | 3.0 | 0.00 | 0.00 | 0.00 | 76 | 1016.3 |
| 20260509202703 | 55 | 318 | 2.0 | 3.0 | 0.00 | 0.00 | 0.00 | 76 | 1016.3 |
| 20260509202203 | 56 | 323 | 2.0 | 5.0 | 0.00 | 0.00 | 0.00 | 76 | 1016.3 |
| 20260509201704 | 56 | 296 | 1.0 | 3.0 | 0.00 | 0.00 | 0.00 | 75 | 1016.3 |
| 20260509201204 | 56 | 329 | 2.0 | 3.0 | 0.00 | 0.00 | 0.00 | 75 | 1016.3 |
| 20260509200703 | 56 | 326 | 2.0 | 3.0 | 0.00 | 0.00 | 0.00 | 74 | 1016.3 |
| 20260509200203 | 56 | 330 | 2.0 | 3.0 | 0.00 | 0.00 | 0.00 | 74 | 1016.3 |
| 20260509195704 | 57 | 322 | 2.0 | 5.0 | 0.00 | 0.00 | 0.00 | 74 | 1016.3 |
| 20260509195203 | 57 | 325 | 2.0 | 5.0 | 0.00 | 0.00 | 0.00 | 74 | 1016.2 |
| 20260509194703 | 57 | 346 | 3.0 | 5.0 | 0.00 | 0.00 | 0.00 | 73 | 1016.2 |
| 20260509194203 | 57 | 346 | 2.0 | 5.0 | 0.00 | 0.00 | 0.00 | 73 | 1016.2 |
| 20260509193203 | 58 | 333 | 3.0 | 5.0 | 0.00 | 0.00 | 0.00 | 72 | 1016.2 |
| 20260509192704 | 58 | 349 | 2.0 | 6.0 | 0.00 | 0.00 | 0.00 | 72 | 1016.1 |
| 20260509192204 | 58 | 346 | 2.0 | 5.0 | 0.00 | 0.00 | 0.00 | 72 | 1016.2 |
| 20260509191706 | 58 | 342 | 3.0 | 8.0 | 0.00 | 0.00 | 0.00 | 71 | 1016.2 |
| 20260509191203 | 58 | 336 | 2.0 | 6.0 | 0.00 | 0.00 | 0.00 | 71 | 1016.1 |
| 20260509190703 | 59 | 337 | 3.0 | 6.0 | 0.00 | 0.00 | 0.00 | 71 | 1016.0 |
| 20260509190204 | 59 | 339 | 3.0 | 6.0 | 0.00 | 0.00 | 0.00 | 71 | 1015.9 |
| 20260509185704 | 59 | 322 | 3.0 | 6.0 | 0.00 | 0.00 | 0.00 | 71 | 1015.9 |
| 20260509185204 | 59 | 344 | 2.0 | 7.0 | 0.00 | 0.00 | 0.00 | 71 | 1015.9 |
| 20260509184704 | 59 | 348 | 2.0 | 8.0 | 0.00 | 0.00 | 0.00 | 71 | 1015.9 |
| 20260509184203 | 59 | 337 | 2.0 | 9.0 | 0.00 | 0.00 | 0.00 | 71 | 1015.9 |
| 20260509183703 | 60 | 338 | 3.0 | 9.0 | 0.00 | 0.00 | 0.00 | 71 | 1015.8 |
| 20260509183204 | 60 | 324 | 5.0 | 9.0 | 0.00 | 0.00 | 0.00 | 70 | 1015.9 |
| 20260509182204 | 61 | 331 | 3.0 | 10.0 | 0.00 | 0.00 | 0.00 | 68 | 1015.9 |
| 20260509181704 | 61 | 324 | 3.0 | 8.0 | 0.00 | 0.00 | 0.00 | 67 | 1016.0 |
| 20260509180705 | 61 | 354 | 2.0 | 6.0 | 0.00 | 0.00 | 0.00 | 66 | 1016.0 |
| 20260509180204 | 61 | 336 | 3.0 | 6.0 | 0.00 | 0.00 | 0.00 | 66 | 1015.9 |
| 20260509175704 | 62 | 341 | 3.0 | 8.0 | 0.00 | 0.00 | 0.00 | 65 | 1015.9 |
| 20260509175204 | 62 | 349 | 3.0 | 6.0 | 0.00 | 0.00 | 0.00 | 65 | 1015.9 |
| 20260509174704 | 62 | 339 | 4.0 | 8.0 | 0.00 | 0.00 | 0.00 | 64 | 1015.9 |
| 20260509174204 | 62 | 319 | 3.0 | 9.0 | 0.00 | 0.00 | 0.00 | 64 | 1015.8 |
| 20260509173704 | 62 | 330 | 3.0 | 6.0 | 0.00 | 0.00 | 0.00 | 64 | 1015.8 |
| 20260509173203 | 62 | 358 | 2.0 | 7.0 | 0.00 | 0.00 | 0.00 | 63 | 1015.7 |
| 20260509172702 | 63 | 352 | 2.0 | 6.0 | 0.00 | 0.00 | 0.00 | 63 | 1015.7 |
| 20260509172203 | 63 | 26 | 2.0 | 8.0 | 0.00 | 0.00 | 0.00 | 62 | 1015.7 |
| 20260509171702 | 63 | 12 | 4.0 | 8.0 | 0.00 | 0.00 | 0.00 | 62 | 1015.6 |
| 20260509171203 | 63 | 23 | 4.0 | 8.0 | 0.00 | 0.00 | 0.00 | 61 | 1015.6 |
| 20260509170202 | 64 | 40 | 3.0 | 7.0 | 0.00 | 0.00 | 0.00 | 61 | 1015.6 |
| 20260509165703 | 64 | 15 | 3.0 | 7.0 | 0.00 | 0.00 | 0.00 | 61 | 1015.6 |
| 20260509165202 | 64 | 41 | 3.0 | 9.0 | 0.00 | 0.00 | 0.00 | 60 | 1015.5 |
| 20260509164703 | 64 | 32 | 3.0 | 7.0 | 0.00 | 0.00 | 0.00 | 60 | 1015.5 |
| 20260509164203 | 64 | 52 | 1.0 | 3.0 | 0.00 | 0.00 | 0.00 | 60 | 1015.5 |
| 20260509163703 | 64 | 10 | 2.0 | 5.0 | 0.00 | 0.00 | 0.00 | 61 | 1015.6 |
| 20260509163203 | 63 | 78 | 2.0 | 9.0 | 0.00 | 0.00 | 0.00 | 61 | 1015.6 |
| 20260509162704 | 63 | 346 | 3.0 | 9.0 | 0.00 | 0.00 | 0.00 | 61 | 1015.6 |
| 20260509162202 | 63 | 348 | 3.0 | 9.0 | 0.00 | 0.00 | 0.00 | 61 | 1015.6 |
| 20260509160702 | 64 | 20 | 3.0 | 8.0 | 0.00 | 0.00 | 0.00 | 60 | 1015.7 |
| 20260509160203 | 64 | 49 | 3.0 | 9.0 | 0.00 | 0.00 | 0.00 | 59 | 1015.8 |
| 20260509155203 | 64 | 4 | 3.0 | 8.0 | 0.00 | 0.00 | 0.00 | 59 | 1015.9 |
| 20260509154703 | 64 | 35 | 2.0 | 7.0 | 0.00 | 0.00 | 0.00 | 59 | 1015.9 |
| 20260509154202 | 64 | 66 | 6.0 | 13.0 | 0.00 | 0.00 | 0.00 | 58 | 1015.9 |
| 20260509153702 | 64 | 51 | 3.0 | 10.0 | 0.00 | 0.00 | 0.00 | 58 | 1015.9 |
| 20260509153203 | 64 | 36 | 3.0 | 7.0 | 0.00 | 0.00 | 0.00 | 58 | 1015.9 |
| 20260509152703 | 65 | 71 | 4.0 | 10.0 | 0.00 | 0.00 | 0.00 | 57 | 1016.0 |
| 20260509151702 | 66 | 44 | 6.0 | 9.0 | 0.00 | 0.00 | 0.00 | 56 | 1016.1 |
| 20260509150703 | 65 | 18 | 2.0 | 6.0 | 0.00 | 0.00 | 0.00 | 56 | 1016.2 |
| 20260509150203 | 66 | 296 | 1.0 | 3.0 | 0.00 | 0.00 | 0.00 | 55 | 1016.2 |
| 20260509145703 | 66 | 35 | 3.0 | 6.0 | 0.00 | 0.00 | 0.00 | 55 | 1016.3 |
| 20260509145203 | 65 | 28 | 3.0 | 6.0 | 0.00 | 0.00 | 0.00 | 57 | 1016.4 |
| 20260509144703 | 64 | 69 | 2.0 | 8.0 | 0.00 | 0.00 | 0.00 | 59 | 1016.4 |
| 20260509144203 | 63 | 31 | 1.0 | 5.0 | 0.00 | 0.00 | 0.00 | 60 | 1016.5 |
| 20260509143203 | 63 | 1 | 2.0 | 5.0 | 0.00 | 0.00 | 0.00 | 59 | 1016.6 |
| 20260509142703 | 63 | 24 | 2.0 | 8.0 | 0.00 | 0.00 | 0.00 | 58 | 1016.7 |
| 20260509141702 | 64 | 46 | 2.0 | 10.0 | 0.00 | 0.00 | 0.00 | 58 | 1016.8 |
| 20260509141203 | 64 | 24 | 3.0 | 6.0 | 0.00 | 0.00 | 0.00 | 58 | 1016.8 |
| 20260509140703 | 64 | 4 | 1.0 | 2.0 | 0.00 | 0.00 | 0.00 | 58 | 1016.8 |
| 20260509140203 | 64 | 354 | 2.0 | 6.0 | 0.00 | 0.00 | 0.00 | 58 | 1016.8 |
| 20260509135703 | 63 | 37 | 2.0 | 7.0 | 0.00 | 0.00 | 0.00 | 58 | 1016.9 |
| 20260509135203 | 63 | 19 | 3.0 | 6.0 | 0.00 | 0.00 | 0.00 | 58 | 1016.9 |
| 20260509134703 | 63 | 47 | 0.0 | 2.0 | 0.00 | 0.00 | 0.00 | 57 | 1017.0 |
| 20260509134203 | 63 | 74 | 4.0 | 8.0 | 0.00 | 0.00 | 0.00 | 58 | 1017.1 |
| 20260509133703 | 63 | 84 | 5.0 | 8.0 | 0.00 | 0.00 | 0.00 | 59 | 1017.1 |
| 20260509133203 | 63 | 74 | 5.0 | 8.0 | 0.00 | 0.00 | 0.00 | 58 | 1017.2 |
| 20260509132703 | 63 | 71 | 4.0 | 10.0 | 0.00 | 0.00 | 0.00 | 58 | 1017.3 |
| 20260509132203 | 63 | 62 | 3.0 | 8.0 | 0.00 | 0.00 | 0.00 | 58 | 1017.3 |
| 20260509131203 | 63 | 47 | 3.0 | 9.0 | 0.00 | 0.00 | 0.00 | 58 | 1017.5 |
| 20260509130203 | 63 | 75 | 5.0 | 8.0 | 0.00 | 0.00 | 0.00 | 58 | 1017.5 |
| 20260509125703 | 63 | 41 | 5.0 | 8.0 | 0.00 | 0.00 | 0.00 | 58 | 1017.6 |
| 20260509125203 | 63 | 30 | 3.0 | 6.0 | 0.00 | 0.00 | 0.00 | 59 | 1017.5 |
| 20260509124703 | 63 | 354 | 1.0 | 3.0 | 0.00 | 0.00 | 0.00 | 58 | 1017.5 |
| 20260509124203 | 63 | 82 | 3.0 | 5.0 | 0.00 | 0.00 | 0.00 | 59 | 1017.5 |
| 20260509123703 | 63 | 54 | 3.0 | 10.0 | 0.00 | 0.00 | 0.00 | 60 | 1017.6 |
| 20260509123204 | 62 | 71 | 3.0 | 8.0 | 0.00 | 0.00 | 0.00 | 60 | 1017.6 |
| 20260509122704 | 62 | 26 | 5.0 | 9.0 | 0.00 | 0.00 | 0.00 | 60 | 1017.7 |
| 20260509122203 | 62 | 19 | 5.0 | 10.0 | 0.00 | 0.00 | 0.00 | 60 | 1017.6 |
| 20260509121703 | 62 | 29 | 4.0 | 9.0 | 0.00 | 0.00 | 0.00 | 59 | 1017.7 |
| 20260509121204 | 63 | 50 | 6.0 | 10.0 | 0.00 | 0.00 | 0.00 | 59 | 1017.8 |
| 20260509120203 | 63 | 53 | 3.0 | 9.0 | 0.00 | 0.00 | 0.00 | 59 | 1017.8 |
| 20260509114703 | 63 | 79 | 6.0 | 12.0 | 0.00 | 0.00 | 0.00 | 59 | 1018.0 |
| 20260509114203 | 63 | 29 | 5.0 | 9.0 | 0.00 | 0.00 | 0.00 | 58 | 1018.0 |
| 20260509113703 | 63 | 92 | 4.0 | 13.0 | 0.00 | 0.00 | 0.00 | 58 | 1018.1 |
| 20260509113204 | 63 | 83 | 5.0 | 10.0 | 0.00 | 0.00 | 0.00 | 58 | 1018.0 |
| 20260509112704 | 62 | 83 | 7.0 | 13.0 | 0.00 | 0.00 | 0.00 | 59 | 1018.1 |
| 20260509112203 | 62 | 60 | 6.0 | 12.0 | 0.00 | 0.00 | 0.00 | 60 | 1018.2 |
| 20260509111203 | 61 | 62 | 6.0 | 9.0 | 0.00 | 0.00 | 0.00 | 60 | 1018.4 |
| 20260509105704 | 63 | 44 | 7.0 | 13.0 | 0.00 | 0.00 | 0.00 | 58 | 1018.5 |
| 20260509105204 | 63 | 85 | 5.0 | 10.0 | 0.00 | 0.00 | 0.00 | 59 | 1018.5 |
| 20260509104703 | 62 | 82 | 4.0 | 10.0 | 0.00 | 0.00 | 0.00 | 60 | 1018.6 |
| 20260509104204 | 61 | 85 | 5.0 | 12.0 | 0.00 | 0.00 | 0.00 | 59 | 1018.5 |
| 20260509103705 | 62 | 35 | 5.0 | 12.0 | 0.00 | 0.00 | 0.00 | 60 | 1018.6 |
| 20260509102704 | 61 | 78 | 7.0 | 12.0 | 0.00 | 0.00 | 0.00 | 60 | 1018.6 |
| 20260509102204 | 60 | 84 | 7.0 | 12.0 | 0.00 | 0.00 | 0.00 | 60 | 1018.6 |
| 20260509101203 | 60 | 82 | 9.0 | 14.0 | 0.00 | 0.00 | 0.00 | 60 | 1018.7 |
| 20260509100704 | 60 | 91 | 6.0 | 9.0 | 0.00 | 0.00 | 0.00 | 60 | 1018.8 |
| 20260509095705 | 60 | 86 | 5.0 | 9.0 | 0.00 | 0.00 | 0.00 | 59 | 1018.7 |
| 20260509095204 | 61 | 80 | 6.0 | 10.0 | 0.00 | 0.00 | 0.00 | 58 | 1018.8 |
| 20260509094703 | 61 | 48 | 6.0 | 10.0 | 0.00 | 0.00 | 0.00 | 58 | 1018.8 |
| 20260509094204 | 61 | 93 | 6.0 | 10.0 | 0.00 | 0.00 | 0.00 | 58 | 1018.8 |
| 20260509093704 | 61 | 48 | 6.0 | 12.0 | 0.00 | 0.00 | 0.00 | 57 | 1018.7 |
| 20260509093204 | 62 | 94 | 5.0 | 9.0 | 0.00 | 0.00 | 0.00 | 56 | 1018.7 |
| 20260509092704 | 61 | 86 | 5.0 | 9.0 | 0.00 | 0.00 | 0.00 | 59 | 1018.8 |
| 20260509092203 | 61 | 58 | 4.0 | 9.0 | 0.00 | 0.00 | 0.00 | 60 | 1018.8 |
| 20260509091704 | 60 | 80 | 6.0 | 10.0 | 0.00 | 0.00 | 0.00 | 62 | 1018.9 |
| 20260509091204 | 60 | 114 | 7.0 | 12.0 | 0.00 | 0.00 | 0.00 | 62 | 1018.9 |
| 20260509090704 | 60 | 92 | 6.0 | 10.0 | 0.00 | 0.00 | 0.00 | 63 | 1019.0 |
| 20260509090204 | 60 | 37 | 5.0 | 9.0 | 0.00 | 0.00 | 0.00 | 64 | 1019.0 |
| 20260509085704 | 60 | 66 | 5.0 | 10.0 | 0.00 | 0.00 | 0.00 | 61 | 1019.0 |
| 20260509085205 | 60 | 70 | 6.0 | 10.0 | 0.00 | 0.00 | 0.00 | 64 | 1019.0 |
| 20260509084704 | 60 | 94 | 6.0 | 10.0 | 0.00 | 0.00 | 0.00 | 67 | 1019.0 |
| 20260509084204 | 59 | 92 | 7.0 | 10.0 | 0.00 | 0.00 | 0.00 | 66 | 1019.0 |
| 20260509083204 | 59 | 71 | 5.0 | 10.0 | 0.00 | 0.00 | 0.00 | 68 | 1019.0 |
| 20260509082202 | 59 | 75 | 6.0 | 12.0 | 0.00 | 0.00 | 0.00 | 69 | 1019.1 |
| 20260509081702 | 59 | 75 | 6.0 | 12.0 | 0.00 | 0.00 | 0.00 | 69 | 1019.1 |
| 20260509081202 | 58 | 82 | 5.0 | 8.0 | 0.00 | 0.00 | 0.00 | 70 | 1019.2 |
| 20260509080202 | 58 | 90 | 4.0 | 10.0 | 0.00 | 0.00 | 0.00 | 70 | 1019.2 |
| 20260509075203 | 58 | 41 | 3.0 | 7.0 | 0.00 | 0.00 | 0.00 | 71 | 1019.2 |
| 20260509074702 | 57 | 80 | 5.0 | 9.0 | 0.00 | 0.00 | 0.00 | 71 | 1019.3 |
| 20260509074203 | 57 | 81 | 5.0 | 9.0 | 0.00 | 0.00 | 0.00 | 71 | 1019.3 |
| 20260509073702 | 57 | 80 | 5.0 | 12.0 | 0.00 | 0.00 | 0.00 | 72 | 1019.2 |
| 20260509073202 | 57 | 80 | 5.0 | 10.0 | 0.00 | 0.00 | 0.00 | 74 | 1019.2 |
| 20260509072702 | 57 | 74 | 4.0 | 8.0 | 0.00 | 0.00 | 0.00 | 75 | 1019.3 |
| 20260509072203 | 56 | 120 | 2.0 | 6.0 | 0.00 | 0.00 | 0.00 | 75 | 1019.4 |
| 20260509071703 | 56 | 88 | 3.0 | 7.0 | 0.00 | 0.00 | 0.00 | 76 | 1019.4 |
| 20260509071202 | 55 | 101 | 6.0 | 9.0 | 0.00 | 0.00 | 0.00 | 76 | 1019.4 |
| 20260509070703 | 55 | 82 | 6.0 | 10.0 | 0.00 | 0.00 | 0.00 | 77 | 1019.5 |
| 20260509070203 | 55 | 106 | 5.0 | 10.0 | 0.00 | 0.00 | 0.00 | 79 | 1019.5 |
| 20260509064703 | 53 | 82 | 6.0 | 9.0 | 0.00 | 0.00 | 0.00 | 84 | 1019.4 |
| 20260509064203 | 52 | 83 | 5.0 | 9.0 | 0.00 | 0.00 | 0.00 | 84 | 1019.3 |
| 20260509063202 | 51 | 89 | 3.0 | 7.0 | 0.00 | 0.00 | 0.00 | 86 | 1019.3 |
| 20260509062704 | 51 | 50 | 2.0 | 5.0 | 0.00 | 0.00 | 0.00 | 87 | 1019.3 |
| 20260509061702 | 50 | 60 | 3.0 | 6.0 | 0.00 | 0.00 | 0.00 | 88 | 1019.2 |
| 20260509061203 | 49 | 85 | 5.0 | 9.0 | 0.00 | 0.00 | 0.00 | 88 | 1019.2 |
| 20260509060703 | 49 | 55 | 3.0 | 6.0 | 0.00 | 0.00 | 0.00 | 88 | 1019.2 |
| 20260509060203 | 49 | 80 | 4.0 | 7.0 | 0.00 | 0.00 | 0.00 | 89 | 1019.2 |
| 20260509055203 | 48 | 96 | 3.0 | 5.0 | 0.00 | 0.00 | 0.00 | 89 | 1019.1 |
| 20260509054703 | 48 | 78 | 2.0 | 5.0 | 0.00 | 0.00 | 0.00 | 89 | 1019.2 |
| 20260509054203 | 47 | 52 | 2.0 | 5.0 | 0.00 | 0.00 | 0.00 | 89 | 1019.1 |
| 20260509053703 | 47 | 58 | 1.0 | 3.0 | 0.00 | 0.00 | 0.00 | 89 | 1019.0 |
| 20260509052702 | 47 | 80 | 3.0 | 7.0 | 0.00 | 0.00 | 0.00 | 89 | 1019.0 |
| 20260509051704 | 46 | 78 | 4.0 | 7.0 | 0.00 | 0.00 | 0.00 | 90 | 1019.0 |
| 20260509051203 | 46 | 84 | 3.0 | 6.0 | 0.00 | 0.00 | 0.00 | 90 | 1018.9 |
| 20260509050703 | 46 | 82 | 3.0 | 6.0 | 0.00 | 0.00 | 0.00 | 90 | 1018.9 |
| 20260509050202 | 46 | 90 | 2.0 | 7.0 | 0.00 | 0.00 | 0.00 | 90 | 1018.9 |
| 20260509045702 | 46 | 80 | 3.0 | 6.0 | 0.00 | 0.00 | 0.00 | 90 | 1018.8 |
| 20260509045203 | 46 | 74 | 2.0 | 6.0 | 0.00 | 0.00 | 0.00 | 90 | 1018.8 |
| 20260509044703 | 45 | 86 | 2.0 | 3.0 | 0.00 | 0.00 | 0.00 | 89 | 1018.8 |
| 20260509044203 | 45 | 78 | 1.0 | 3.0 | 0.00 | 0.00 | 0.00 | 89 | 1018.9 |
| 20260509043703 | 45 | 71 | 1.0 | 3.0 | 0.00 | 0.00 | 0.00 | 89 | 1018.9 |
| 20260509043203 | 45 | 77 | 2.0 | 3.0 | 0.00 | 0.00 | 0.00 | 89 | 1018.8 |
| 20260509042703 | 45 | 80 | 2.0 | 3.0 | 0.00 | 0.00 | 0.00 | 89 | 1018.9 |
| 20260509042203 | 45 | 80 | 2.0 | 3.0 | 0.00 | 0.00 | 0.00 | 89 | 1018.8 |
| 20260509041203 | 45 | 64 | 1.0 | 3.0 | 0.00 | 0.00 | 0.00 | 89 | 1018.8 |
| 20260509040703 | 45 | 72 | 1.0 | 3.0 | 0.00 | 0.00 | 0.00 | 88 | 1018.9 |
| 20260509040203 | 45 | 71 | 1.0 | 3.0 | 0.00 | 0.00 | 0.00 | 88 | 1018.9 |
| 20260509035703 | 45 | 81 | 1.0 | 3.0 | 0.00 | 0.00 | 0.00 | 88 | 1018.9 |
| 20260509035203 | 45 | 77 | 2.0 | 3.0 | 0.00 | 0.00 | 0.00 | 88 | 1018.9 |
| 20260509034703 | 45 | 87 | 1.0 | 2.0 | 0.00 | 0.00 | 0.00 | 88 | 1018.9 |
| 20260509034203 | 45 | 87 | 1.0 | 2.0 | 0.00 | 0.00 | 0.00 | 88 | 1018.9 |
| 20260509033703 | 45 | 94 | 1.0 | 3.0 | 0.00 | 0.00 | 0.00 | 88 | 1018.9 |
| 20260509032703 | 45 | 89 | 2.0 | 3.0 | 0.00 | 0.00 | 0.00 | 88 | 1019.1 |
| 20260509031703 | 45 | 78 | 2.0 | 3.0 | 0.00 | 0.00 | 0.00 | 88 | 1019.1 |
| 20260509031203 | 45 | 88 | 2.0 | 3.0 | 0.00 | 0.00 | 0.00 | 88 | 1019.1 |
| 20260509030703 | 45 | 81 | 2.0 | 3.0 | 0.00 | 0.00 | 0.00 | 87 | 1019.1 |
| 20260509030203 | 45 | 86 | 2.0 | 3.0 | 0.00 | 0.00 | 0.00 | 87 | 1019.2 |
| 20260509025704 | 45 | 82 | 2.0 | 3.0 | 0.00 | 0.00 | 0.00 | 87 | 1019.2 |
| 20260509024704 | 45 | 77 | 2.0 | 3.0 | 0.00 | 0.00 | 0.00 | 87 | 1019.2 |
| 20260509023204 | 45 | 85 | 2.0 | 3.0 | 0.00 | 0.00 | 0.00 | 86 | 1019.2 |
| 20260509022704 | 45 | 78 | 2.0 | 3.0 | 0.00 | 0.00 | 0.00 | 86 | 1019.2 |
| 20260509021704 | 45 | 78 | 1.0 | 3.0 | 0.00 | 0.00 | 0.00 | 86 | 1019.2 |
| 20260509021204 | 46 | 77 | 1.0 | 3.0 | 0.00 | 0.00 | 0.00 | 85 | 1019.2 |
| 20260509020704 | 46 | 84 | 2.0 | 3.0 | 0.00 | 0.00 | 0.00 | 85 | 1019.2 |
| 20260509015704 | 46 | 82 | 0.0 | 3.0 | 0.00 | 0.00 | 0.00 | 85 | 1019.2 |
| 20260509015204 | 46 | 83 | 2.0 | 3.0 | 0.00 | 0.00 | 0.00 | 85 | 1019.3 |
| 20260509014704 | 46 | 84 | 2.0 | 3.0 | 0.00 | 0.00 | 0.00 | 84 | 1019.3 |
| 20260509014204 | 46 | 85 | 2.0 | 3.0 | 0.00 | 0.00 | 0.00 | 84 | 1019.2 |
| 20260509013704 | 46 | 91 | 3.0 | 3.0 | 0.00 | 0.00 | 0.00 | 84 | 1019.2 |
| 20260509012704 | 46 | 81 | 1.0 | 3.0 | 0.00 | 0.00 | 0.00 | 83 | 1019.2 |
| 20260509012204 | 46 | 81 | 0.0 | 0.0 | 0.00 | 0.00 | 0.00 | 83 | 1019.2 |
| 20260509011704 | 46 | 81 | 0.0 | 2.0 | 0.00 | 0.00 | 0.00 | 83 | 1019.2 |
| 20260509010704 | 46 | 81 | 0.0 | 1.0 | 0.00 | 0.00 | 0.00 | 82 | 1019.2 |
| 20260509010204 | 47 | 81 | 0.0 | 1.0 | 0.00 | 0.00 | 0.00 | 82 | 1019.2 |
| 20260509005205 | 47 | 81 | 0.0 | 2.0 | 0.00 | 0.00 | 0.00 | 82 | 1019.2 |
| 20260509004704 | 47 | 81 | 1.0 | 2.0 | 0.00 | 0.00 | 0.00 | 82 | 1019.2 |
| 20260509004204 | 47 | 81 | 0.0 | 2.0 | 0.00 | 0.00 | 0.00 | 82 | 1019.2 |
| 20260509003703 | 47 | 83 | 1.0 | 2.0 | 0.00 | 0.00 | 0.00 | 82 | 1019.1 |
| 20260509003203 | 47 | 83 | 1.0 | 2.0 | 0.00 | 0.00 | 0.00 | 81 | 1019.1 |
| 20260509002704 | 47 | 83 | 2.0 | 2.0 | 0.00 | 0.00 | 0.00 | 81 | 1019.1 |
| 20260509002203 | 47 | 78 | 1.0 | 3.0 | 0.00 | 0.00 | 0.00 | 81 | 1019.0 |
| 20260509001703 | 47 | 98 | 1.0 | 2.0 | 0.00 | 0.00 | 0.00 | 80 | 1019.0 |